DECAYED

STARLINK-32335, 61703 (Decayed)

Orbit data source: Space-Track

STARLINK-32335, 61703 was a payload satellite owned by SpaceX/Seattle (US) in LEO that was launched on Wed, 30 Oct 2024 UTC via an FALCON 9 launch vehicle from the Air Force Western Test Range (AFWTR). Payload-class satellites include a variety of spacecraft equipped with specific instruments for various scientific and technological missions. These include communications satellites like Starlink; space stations such as the ISS; scientific satellites like the Hubble; Earth observation satellites from companies like Planet Labs, Umbra, and HawkEye 360; GPS; miniature CubeSats for education and research; and military/defense satellites.

Not visible in the next 10 days
Identifier
61703, 2024-195S
Orbit
Decayed
Country
Flag of USUS
Related business
Manufacturer
SpaceX/Seattle
Mission
Decayed Commercial Communications
Bus & Motor
STARLINK V2M, Unknown motor
Mass
730 kg wet, ~700 kg dry
Launch date (UTC)
2024-10-30 (2 years ago)
Launch vehicle
FALCON 9
Launch site
Air Force Western Test Range (AFWTR)
Object type
Payload
Rocket body
Debris
Shape & HBR
Box + 2 Pan, 17.7 m
Radar Cross Section
33.884 m², Large (>1 m²)

Expand to show TLE details & history
Last TLE update: 1 month ago

TLE from 1 month ago
0 STARLINK-32335
1 61703U 24195S   26143.46386716  .12809506  12009-4  28061-2 0  9991
2 61703  53.1199 135.7630 0005281 136.7190 223.4268 16.29704236 89144
Epoch: 2026-05-23T11:07Z
TLE epoch observation values (Epoch: 2026-05-23T11:07:58.122Z)
Latitude
-0.0001°
Longitude
87.69076°
Altitude
196.79 km
Speed
7.788 km/s
True Right ascension
09h 03m 03s
True Declination
0° 00' 00"
Sunlit
Object was in daylight at epoch
Visualization orbit readout
Latitude
Unknown
Longitude
Unknown
Altitude
Unknown
Speed
Unknown
Apparent Right ascension
Unknown
Apparent Declination
Unknown
Sunlit
N/A
Visualization observer readout
Local Sidereal Time
07:15:02
Azimuth
Unknown
Elevation
Unknown
Doppler factor
Unknown
Orbital elements
Apogee altitude
197.079 km
Perigee altitude
190.138 km
Semi-major axis
6,571.746 km
Eccentricity
0.00053
Inclination
53.1199°
RAAN
135.763°
Arg. of periapsis
136.719°
True anomaly
223.38522°
Mean anomaly
223.4268°
Eccentric anomaly
223.40601°
Mean motion
4.07401 °/min
Orbital period
88.37 mins
BSTAR
0.0028061
Loading maneuver chart data...
Computing Atmospheric mass density...
Loading historical data...
Loading historical data...
Loading historical data...
Loading historical data...
Loading historical data...
Loading historical data...
Loading historical data...

Documentation

Showing up to 5 results
|